Location: Newark
(7.0858°N, 171.3717°E)
Time: 13:46:36
(UTC+00:00)

Vanguard 1 Rocket - Pass Details

Date: 01 December 2020
Orbit: 655 x 4222 km, 34.3° (Epoch: 23 January)

Event Time Altitude Azimuth Distance (km) Brightness Sun altitude
Rises 09:05:20 0° 220° (SW) 5,610 12.1 -40.0°
Reaches altitude 10° 09:08:27 10° 215° (SW) 4,983 11.7 -40.7°
Maximum altitude 09:24:27 60° 137° (SE) 3,853 10.2 -44.4°
Enters shadow 09:26:09 59° 122° (ESE) 3,977 10.2 -44.8°
